Weather History for Rolla, ND

Change the Weather History Date:

Tuesday, September 17, 2013

  Actual Average (KRUG) Record (KRUG)
Temperature  
Mean Temperature 62 °F -  
Max Temperature 75 °F 69 °F 93 °F (1989)
Min Temperature 50 °F 43 °F 27 °F (1959)
Degree Days  
Heating Degree Days 2    
Growing Degree Days 12 (Base 50)    
Moisture  
Dew Point 54 °F    
Average Humidity 81    
Maximum Humidity 100    
Minimum Humidity 57    
Precipitation  
Precipitation 0.00 in - - ()
Sea Level Pressure  
Sea Level Pressure 29.80 in    
Wind  
Wind Speed 16 mph (South)    
Max Wind Speed 24 mph    
Max Gust Speed 32 mph    
Visibility 10 miles    
Events      
Averages and records for this station are not official NWS values.
T = Trace of Precipitation, MM = Missing Value Source: NWS Daily Summary

Daily Weather History Graph

Daily Weather History Graph

Search for Another Location

Airport:

Trip Planner

Search our weather history database for the weather conditions in past years. The results will help you decide how hot, cold, wet, or windy it might be!

Date:

Astronomy

Sep. 17, 2013 Rise Set
Actual Time 7:18 AM CDT 7:46 PM CDT
Civil Twilight 6:46 AM CDT 8:18 PM CDT
Nautical Twilight 6:08 AM CDT 8:55 PM CDT
Astronomical Twilight 5:29 AM CDT 9:34 PM CDT
Moon 6:38 PM CDT (9/17) 5:07 AM CDT (9/17)
Length of Visible Light 13h 31m
Length of Day
12h 28m
Waxing Gibbous, 96% of the Moon is Illuminated
Sep 17
Waxing Gibbous
Sep 19
Full
Sep 26
Last Quarter
Oct 4
New
Oct 11
First Quarter

Hourly Weather History & Observations

Time (CDT) Temp. Dew Point Humidity Pressure Visibility Wind Dir Wind Speed Gust Speed Precip Events Conditions
12:15 AM 55.4 °F 48.2 °F 77% 29.97 in 10.0 mi South 15.0 mph 21.9 mph N/A   Clear
12:35 AM 55.4 °F 48.2 °F 77% 29.96 in 10.0 mi South 16.1 mph 21.9 mph N/A   Clear
12:55 AM 55.4 °F 48.2 °F 77% 29.96 in 10.0 mi SSW 16.1 mph 23.0 mph N/A   Clear
1:15 AM 55.4 °F 48.2 °F 77% 29.96 in 10.0 mi SSW 12.7 mph 19.6 mph N/A   Clear
1:35 AM 53.6 °F 48.2 °F 82% 29.96 in 10.0 mi South 12.7 mph - N/A   Clear
1:55 AM 53.6 °F 48.2 °F 82% 29.96 in 10.0 mi SSW 10.4 mph - N/A   Clear
2:15 AM 53.6 °F 48.2 °F 82% 29.96 in 10.0 mi SSW 10.4 mph - N/A   Clear
2:35 AM 50.0 °F 48.2 °F 94% 29.95 in 10.0 mi South 8.1 mph - N/A   Clear
2:55 AM 51.8 °F 48.2 °F 88% 29.94 in 10.0 mi South 11.5 mph - N/A   Clear
3:15 AM 51.8 °F 50.0 °F 94% 29.93 in 10.0 mi South 13.8 mph - N/A   Clear
3:35 AM 53.6 °F 50.0 °F 88% 29.92 in 10.0 mi South 16.1 mph - N/A   Clear
3:55 AM 53.6 °F 50.0 °F 88% 29.91 in 10.0 mi South 19.6 mph - N/A   Clear
4:15 AM 53.6 °F 50.0 °F 88% 29.89 in 10.0 mi South 21.9 mph 29.9 mph N/A   Clear
4:35 AM 51.8 °F 50.0 °F 94% 29.87 in 10.0 mi South 18.4 mph 26.5 mph N/A   Clear
4:55 AM 51.8 °F 50.0 °F 94% 29.87 in 10.0 mi South 15.0 mph 20.7 mph N/A   Clear
5:15 AM 51.8 °F 50.0 °F 94% 29.87 in 10.0 mi South 15.0 mph 24.2 mph N/A   Clear
5:35 AM 50.0 °F 50.0 °F 100% 29.87 in 10.0 mi South 15.0 mph 20.7 mph N/A   Clear
5:55 AM 50.0 °F 50.0 °F 100% 29.86 in 10.0 mi South 12.7 mph - N/A   Clear
6:15 AM 50.0 °F 50.0 °F 100% 29.86 in 10.0 mi South 15.0 mph 20.7 mph N/A   Clear
6:35 AM 50.0 °F 50.0 °F 100% 29.85 in 10.0 mi South 17.3 mph 21.9 mph N/A   Clear
6:55 AM 50.0 °F 50.0 °F 100% 29.85 in 10.0 mi South 15.0 mph 23.0 mph N/A   Clear
7:15 AM 50.0 °F 50.0 °F 100% 29.86 in 10.0 mi South 11.5 mph - N/A   Clear
7:35 AM 50.0 °F 50.0 °F 100% 29.85 in 10.0 mi South 12.7 mph - N/A   Clear
7:55 AM 50.0 °F 50.0 °F 100% 29.85 in 10.0 mi South 16.1 mph 21.9 mph N/A   Clear
8:15 AM 51.8 °F 51.8 °F 100% 29.84 in 10.0 mi South 18.4 mph 25.3 mph N/A   Clear
8:35 AM 53.6 °F 53.6 °F 100% 29.84 in 10.0 mi South 18.4 mph 25.3 mph N/A   Clear
8:55 AM 53.6 °F 53.6 °F 100% 29.83 in 10.0 mi South 19.6 mph 26.5 mph N/A   Clear
9:15 AM 55.4 °F 53.6 °F 94% 29.83 in 10.0 mi SSW 16.1 mph 25.3 mph N/A   Clear
9:35 AM 57.2 °F 53.6 °F 88% 29.81 in 10.0 mi South 21.9 mph 27.6 mph N/A   Partly Cloudy
9:55 AM 57.2 °F 53.6 °F 88% 29.81 in 10.0 mi SSW 19.6 mph 32.2 mph N/A   Partly Cloudy
10:15 AM 59.0 °F 53.6 °F 82% 29.81 in 10.0 mi South 21.9 mph 29.9 mph N/A   Mostly Cloudy
10:35 AM 60.8 °F 55.4 °F 82% 29.81 in 10.0 mi SSW 24.2 mph 29.9 mph N/A   Overcast
10:55 AM 62.6 °F 55.4 °F 77% 29.80 in 10.0 mi SSW 24.2 mph 31.1 mph N/A   Mostly Cloudy
11:15 AM 62.6 °F 55.4 °F 77% 29.79 in 10.0 mi SSW 24.2 mph 29.9 mph N/A   Scattered Clouds
11:35 AM 64.4 °F 55.4 °F 73% 29.80 in 10.0 mi SSW 18.4 mph 31.1 mph N/A   Mostly Cloudy
11:55 AM 64.4 °F 55.4 °F 73% 29.79 in 10.0 mi SSW 19.6 mph 29.9 mph N/A   Scattered Clouds
12:15 PM 66.2 °F 55.4 °F 68% 29.79 in 10.0 mi South 20.7 mph 26.5 mph N/A   Partly Cloudy
12:35 PM 66.2 °F 55.4 °F 68% 29.78 in 10.0 mi SSW 18.4 mph 25.3 mph N/A   Partly Cloudy
12:55 PM 68.0 °F 55.4 °F 64% 29.77 in 10.0 mi South 18.4 mph 27.6 mph N/A   Partly Cloudy
1:15 PM 68.0 °F 55.4 °F 64% 29.77 in 10.0 mi South 18.4 mph 26.5 mph N/A   Clear
1:35 PM 69.8 °F 55.4 °F 60% 29.76 in 10.0 mi SSW 18.4 mph 29.9 mph N/A   Clear
1:55 PM 71.6 °F 57.2 °F 60% 29.75 in 10.0 mi SSW 21.9 mph 28.8 mph N/A   Clear
2:15 PM 71.6 °F 57.2 °F 60% 29.75 in 10.0 mi SSW 16.1 mph 25.3 mph N/A   Clear
2:35 PM 71.6 °F 57.2 °F 60% 29.75 in 10.0 mi SSW 19.6 mph 27.6 mph N/A   Clear
2:55 PM 71.6 °F 57.2 °F 60% 29.74 in 10.0 mi South 20.7 mph 27.6 mph N/A   Clear
3:15 PM 73.4 °F 57.2 °F 57% 29.74 in 10.0 mi South 19.6 mph 25.3 mph N/A   Clear
3:35 PM 73.4 °F 57.2 °F 57% 29.73 in 10.0 mi South 19.6 mph 27.6 mph N/A   Clear
3:55 PM 73.4 °F 57.2 °F 57% 29.73 in 10.0 mi South 20.7 mph 26.5 mph N/A   Clear
4:15 PM 73.4 °F 57.2 °F 57% 29.73 in 10.0 mi South 19.6 mph 28.8 mph N/A   Clear
4:35 PM 75.2 °F 59.0 °F 57% 29.72 in 10.0 mi South 20.7 mph 27.6 mph N/A   Clear
4:55 PM 75.2 °F 59.0 °F 57% 29.72 in 10.0 mi SSW 21.9 mph 26.5 mph N/A   Clear
5:15 PM 75.2 °F 59.0 °F 57% 29.72 in 10.0 mi South 21.9 mph 26.5 mph N/A   Clear
5:35 PM 75.2 °F 59.0 °F 57% 29.72 in 10.0 mi South 17.3 mph 26.5 mph N/A   Clear
5:55 PM 75.2 °F 59.0 °F 57% 29.71 in 10.0 mi South 19.6 mph 24.2 mph N/A   Clear
6:15 PM 73.4 °F 59.0 °F 61% 29.71 in 10.0 mi South 17.3 mph - N/A   Clear
6:35 PM 73.4 °F 59.0 °F 61% 29.71 in 10.0 mi South 15.0 mph 20.7 mph N/A   Clear
6:55 PM 73.4 °F 59.0 °F 61% 29.71 in 10.0 mi South 15.0 mph 21.9 mph N/A   Clear
7:15 PM 69.8 °F 59.0 °F 68% 29.71 in 10.0 mi South 13.8 mph - N/A   Clear
7:35 PM 68.0 °F 59.0 °F 73% 29.71 in 10.0 mi South 11.5 mph - N/A   Clear
7:55 PM 66.2 °F 59.0 °F 78% 29.71 in 10.0 mi South 15.0 mph - N/A   Clear
8:15 PM 64.4 °F 59.0 °F 83% 29.72 in 10.0 mi South 11.5 mph - N/A   Clear
8:35 PM 64.4 °F 59.0 °F 83% 29.73 in 10.0 mi South 10.4 mph 16.1 mph N/A   Clear
8:55 PM 62.6 °F 59.0 °F 88% 29.74 in 10.0 mi South 9.2 mph - N/A   Clear
9:15 PM 62.6 °F 59.0 °F 88% 29.74 in 10.0 mi South 10.4 mph - N/A   Clear
9:35 PM 60.8 °F 59.0 °F 94% 29.74 in 10.0 mi South 13.8 mph - N/A   Clear
9:55 PM 60.8 °F 59.0 °F 94% 29.74 in 10.0 mi South 11.5 mph 18.4 mph N/A   Clear
10:15 PM 59.0 °F 59.0 °F 100% 29.74 in 10.0 mi South 10.4 mph - N/A   Clear
10:35 PM 59.0 °F 59.0 °F 100% 29.73 in 10.0 mi South 12.7 mph - N/A   Clear
10:55 PM 59.0 °F 59.0 °F 100% 29.73 in 10.0 mi South 11.5 mph 17.3 mph N/A   Clear
11:15 PM 59.0 °F 59.0 °F 100% 29.73 in 10.0 mi South 10.4 mph - N/A   Clear
11:35 PM 59.0 °F 59.0 °F 100% 29.72 in 10.0 mi South 10.4 mph - N/A   Clear
11:55 PM 57.2 °F 57.2 °F 100% 29.73 in 10.0 mi South 11.5 mph - N/A   Clear